Simultaneous Nadir Overpasses (SNOs) Predictions

Prediction of SNOs between NOAA-15 and METOP-C Satellite Orbit:

Table of predicted SNOs for the next 14.0 days since TLE Epoch: 11/13/2020
Index Date (NOAA-15) Time (NOAA-15) Lat,Lon (NOAA-15) SZA (NOAA-15 ) Date (METOP-C) Time (METOP-C) Lat,Lon (METOP-C) SZA (METOP-C ) Distance(km) Time Diff (sec)
1 11/16/2020 21:18:55 -80.95, 76.95 78.01 11/16/2020 21:17:45 -80.97, 77.10 78.01 3.30 70
2 11/16/2020 22:09:30 80.94,-115.57 102.01 11/16/2020 22:08:26 80.96,-115.70 101.99 3.00 64
3 11/16/2020 22:59:58 -80.96, 51.46 78.00 11/16/2020 22:59:07 -80.96, 51.63 78.01 2.89 51
4 11/16/2020 23:50:33 80.95,-141.05 102.02 11/16/2020 23:49:48 80.95,-141.18 101.99 2.17 45
5 11/17/2020 00:41:00 -80.95, 26.34 77.98 11/17/2020 00:40:29 -80.95, 26.15 78.01 3.29 31
6 11/17/2020 01:31:36 80.97,-166.54 102.02 11/17/2020 01:31:10 80.95,-166.65 101.99 2.70 26
7 11/17/2020 02:22:03 -80.96, 0.86 77.98 11/17/2020 02:21:50 -80.97, 1.04 77.96 3.23 13
8 11/17/2020 03:12:38 80.96, 168.34 102.05 11/17/2020 03:12:31 80.96, 168.24 102.03 1.79 7
9 11/17/2020 04:03:05 -80.96, -24.26 77.95 11/17/2020 04:03:12 -80.96, -24.43 77.96 2.96 7
10 11/17/2020 04:53:41 80.97, 142.86 102.05 11/17/2020 04:53:53 80.95, 142.76 102.03 2.41 12
11 11/17/2020 05:44:08 -80.97, -49.75 77.95 11/17/2020 05:44:34 -80.95, -49.91 77.97 3.30 26
12 11/17/2020 06:34:43 80.96, 117.73 102.07 11/17/2020 06:35:14 80.96, 117.65 102.08 1.41 31
13 11/17/2020 07:25:10 -80.96, -74.87 77.92 11/17/2020 07:25:55 -80.96, -75.02 77.92 2.62 45
14 11/17/2020 08:15:46 80.97, 92.25 102.08 11/17/2020 08:16:36 80.96, 92.18 102.08 2.15 50
15 11/17/2020 09:06:13 -80.97,-100.35 77.92 11/17/2020 09:07:17 -80.96,-100.49 77.92 3.00 64
